Location: Alincthun
(50.7310°N, 1.8022°E)
Time: 08:14:33
(UTC+00:00)

Cosmos 2360 Rocket - Pass Details

Date: 17 February 2020
Orbit: 835 x 843 km, 71.0° (Epoch: 04 April)

Event Time Altitude Azimuth Distance (km) Brightness Sun altitude
Exits shadow 02:44:19 18° 16° (NNE) 1,951 4.5 -39.9°
Drops below altitude 10° 02:45:48 10° 22° (NNE) 2,466 5.1 -39.7°
Sets 02:48:21 0° 28° (NNE) 3,403 6.1 -39.4°
